| time (UTC) | temp C | wind direction | speed KPH | gust KPH | rain 1hr cm | rain 24hr cm | rain mn cm | humidity % | barometer mb |
| 20260505152324 | 30 | 104 | 1.6 | 1.6 | 0.00 | 0.00 | 0.15 | 77 | 1008.0 |
| 20260505151823 | 30 | 136 | 6.4 | 8.0 | 0.00 | 0.00 | 0.15 | 77 | 1008.0 |
| 20260505151324 | 30 | 55 | 1.6 | 3.2 | 0.00 | 0.00 | 0.15 | 76 | 1007.0 |
| 20260505150825 | 30 | 105 | 3.2 | 4.8 | 0.00 | 0.00 | 0.15 | 76 | 1007.0 |
| 20260505150326 | 30 | 121 | 4.8 | 4.8 | 0.00 | 0.00 | 0.15 | 76 | 1007.0 |
| 20260505140324 | 30 | 99 | 1.6 | 1.6 | 0.00 | 0.00 | 0.15 | 73 | 1007.0 |
| 20260505124823 | 31 | 86 | 3.2 | 3.2 | 0.00 | 0.00 | 0.15 | 69 | 1006.0 |
| 20260505124323 | 31 | 67 | 6.4 | 9.7 | 0.00 | 0.00 | 0.15 | 68 | 1006.0 |
| 20260505123823 | 31 | 133 | 8.0 | 11.3 | 0.00 | 0.00 | 0.15 | 68 | 1006.0 |
| 20260505123323 | 32 | 140 | 3.2 | 4.8 | 0.00 | 0.00 | 0.15 | 68 | 1005.0 |
| 20260505122822 | 32 | 65 | 4.8 | 8.0 | 0.00 | 0.00 | 0.15 | 68 | 1006.0 |
| 20260505122323 | 32 | 68 | 6.4 | 8.0 | 0.00 | 0.00 | 0.15 | 68 | 1006.0 |
| 20260505121822 | 32 | 131 | 3.2 | 3.2 | 0.00 | 0.00 | 0.15 | 68 | 1005.0 |
| 20260505121323 | 32 | 103 | 8.0 | 9.7 | 0.00 | 0.00 | 0.15 | 67 | 1005.0 |
| 20260505120822 | 32 | 96 | 4.8 | 9.7 | 0.00 | 0.00 | 0.15 | 67 | 1006.0 |
| 20260505120325 | 32 | 69 | 6.4 | 11.3 | 0.00 | 0.00 | 0.15 | 67 | 1005.0 |
| 20260505115822 | 32 | 77 | 6.4 | 11.3 | 0.00 | 0.00 | 0.15 | 66 | 1005.0 |
| 20260505115322 | 32 | 94 | 11.3 | 16.1 | 0.00 | 0.00 | 0.15 | 66 | 1005.0 |
| 20260505114824 | 33 | 56 | 4.8 | 8.0 | 0.00 | 0.00 | 0.15 | 66 | 1005.0 |
| 20260505114323 | 33 | 78 | 1.6 | 1.6 | 0.00 | 0.00 | 0.15 | 62 | 1005.0 |
| 20260505113822 | 33 | 145 | 4.8 | 9.7 | 0.00 | 0.00 | 0.15 | 62 | 1005.0 |
| 20260505113323 | 33 | 96 | 3.2 | 4.8 | 0.00 | 0.00 | 0.15 | 62 | 1005.0 |
| 20260505112822 | 33 | 129 | 1.6 | 1.6 | 0.00 | 0.00 | 0.15 | 63 | 1005.0 |
| 20260505112323 | 33 | 139 | 1.6 | 3.2 | 0.00 | 0.00 | 0.15 | 62 | 1005.0 |
| 20260505111822 | 33 | 112 | 4.8 | 4.8 | 0.00 | 0.00 | 0.15 | 62 | 1005.0 |
| 20260505111322 | 33 | 156 | 4.8 | 4.8 | 0.00 | 0.00 | 0.15 | 61 | 1005.0 |
| 20260505110823 | 34 | 88 | 3.2 | 3.2 | 0.00 | 0.00 | 0.15 | 61 | 1005.0 |
| 20260505110323 | 34 | 98 | 0.0 | 0.0 | 0.00 | 0.00 | 0.15 | 61 | 1005.0 |
| 20260505101824 | 36 | 132 | 4.8 | 4.8 | 0.00 | 0.00 | 0.15 | 53 | 1005.0 |
| 20260505101323 | 35 | 147 | 1.6 | 1.6 | 0.00 | 0.00 | 0.15 | 51 | 1005.0 |
| 20260505100822 | 36 | 156 | 4.8 | 4.8 | 0.00 | 0.00 | 0.15 | 51 | 1005.0 |
| 20260505100322 | 36 | 164 | 1.6 | 3.2 | 0.00 | 0.00 | 0.15 | 51 | 1005.0 |
| 20260505095823 | 36 | 115 | 4.8 | 4.8 | 0.00 | 0.00 | 0.15 | 50 | 1005.0 |
| 20260505095322 | 36 | 192 | 4.8 | 4.8 | 0.00 | 0.00 | 0.15 | 51 | 1005.0 |
| 20260505094822 | 36 | 153 | 3.2 | 3.2 | 0.00 | 0.00 | 0.15 | 51 | 1005.0 |
| 20260505094322 | 36 | 113 | 1.6 | 3.2 | 0.00 | 0.00 | 0.15 | 50 | 1005.0 |
| 20260505093823 | 36 | 163 | 0.0 | 1.6 | 0.00 | 0.00 | 0.15 | 51 | 1005.0 |
| 20260505093325 | 36 | 187 | 4.8 | 4.8 | 0.00 | 0.00 | 0.15 | 51 | 1005.0 |
| 20260505092822 | 36 | 88 | 1.6 | 3.2 | 0.00 | 0.00 | 0.15 | 52 | 1005.0 |
| 20260505092323 | 36 | 148 | 6.4 | 8.0 | 0.00 | 0.00 | 0.15 | 52 | 1005.0 |
| 20260505091822 | 36 | 151 | 3.2 | 3.2 | 0.00 | 0.00 | 0.15 | 53 | 1006.0 |
| 20260505091322 | 36 | 149 | 3.2 | 3.2 | 0.00 | 0.00 | 0.15 | 53 | 1005.0 |
| 20260505090824 | 37 | 139 | 1.6 | 3.2 | 0.00 | 0.00 | 0.15 | 50 | 1006.0 |
| 20260505090325 | 36 | 147 | 1.6 | 1.6 | 0.00 | 0.00 | 0.15 | 53 | 1006.0 |
| 20260505085823 | 36 | 194 | 4.8 | 4.8 | 0.00 | 0.00 | 0.15 | 51 | 1006.0 |
| 20260505085322 | 36 | 137 | 1.6 | 1.6 | 0.00 | 0.00 | 0.15 | 52 | 1006.0 |
| 20260505084822 | 36 | 126 | 1.6 | 1.6 | 0.00 | 0.00 | 0.15 | 52 | 1006.0 |
| 20260505084323 | 37 | 137 | 1.6 | 3.2 | 0.00 | 0.00 | 0.15 | 50 | 1006.0 |
| 20260505083823 | 37 | 93 | 0.0 | 1.6 | 0.00 | 0.00 | 0.15 | 49 | 1006.0 |
| 20260505083322 | 36 | 154 | 3.2 | 4.8 | 0.00 | 0.00 | 0.15 | 50 | 1006.0 |
| 20260505082823 | 36 | 179 | 3.2 | 3.2 | 0.00 | 0.00 | 0.15 | 52 | 1006.0 |
| 20260505082322 | 36 | 166 | 3.2 | 3.2 | 0.00 | 0.00 | 0.15 | 53 | 1006.0 |
| 20260505081822 | 36 | 153 | 3.2 | 3.2 | 0.00 | 0.00 | 0.15 | 52 | 1006.0 |
| 20260505081322 | 37 | 211 | 1.6 | 3.2 | 0.00 | 0.00 | 0.15 | 51 | 1006.0 |
| 20260505080823 | 36 | 131 | 1.6 | 1.6 | 0.00 | 0.00 | 0.15 | 51 | 1006.0 |
| 20260505080322 | 36 | 40 | 1.6 | 3.2 | 0.00 | 0.00 | 0.15 | 52 | 1006.0 |
| 20260505075822 | 36 | 141 | 3.2 | 3.2 | 0.00 | 0.00 | 0.15 | 52 | 1006.0 |
| 20260505075322 | 36 | 216 | 4.8 | 9.7 | 0.00 | 0.00 | 0.15 | 52 | 1007.0 |
| 20260505074826 | 35 | 111 | 1.6 | 1.6 | 0.00 | 0.00 | 0.15 | 55 | 1007.0 |
| 20260505074322 | 36 | 180 | 4.8 | 4.8 | 0.00 | 0.00 | 0.15 | 54 | 1007.0 |
| 20260505073822 | 36 | 110 | 1.6 | 1.6 | 0.00 | 0.00 | 0.15 | 53 | 1007.0 |
| 20260505073322 | 36 | 137 | 1.6 | 1.6 | 0.00 | 0.00 | 0.15 | 55 | 1007.0 |
| 20260505072822 | 36 | 162 | 4.8 | 4.8 | 0.00 | 0.00 | 0.15 | 54 | 1007.0 |
| 20260505072322 | 35 | 125 | 0.0 | 0.0 | 0.00 | 0.00 | 0.15 | 54 | 1007.0 |
| 20260505071822 | 36 | 140 | 3.2 | 3.2 | 0.00 | 0.00 | 0.15 | 54 | 1007.0 |
| 20260505071322 | 36 | 129 | 3.2 | 3.2 | 0.00 | 0.00 | 0.15 | 54 | 1007.0 |
| 20260505070822 | 36 | 159 | 3.2 | 4.8 | 0.00 | 0.00 | 0.15 | 56 | 1007.0 |
| 20260505070322 | 36 | 123 | 0.0 | 1.6 | 0.00 | 0.00 | 0.15 | 54 | 1007.0 |
| 20260505065822 | 36 | 175 | 1.6 | 1.6 | 0.00 | 0.00 | 0.15 | 56 | 1007.0 |
| 20260505065322 | 36 | 125 | 1.6 | 1.6 | 0.00 | 0.00 | 0.15 | 55 | 1007.0 |
| 20260505064822 | 36 | 151 | 1.6 | 1.6 | 0.00 | 0.00 | 0.15 | 54 | 1008.0 |
| 20260505064323 | 35 | 91 | 1.6 | 1.6 | 0.00 | 0.00 | 0.15 | 55 | 1008.0 |
| 20260505063824 | 34 | 101 | 1.6 | 1.6 | 0.00 | 0.00 | 0.15 | 56 | 1008.0 |
| 20260505063322 | 35 | 173 | 3.2 | 3.2 | 0.00 | 0.00 | 0.15 | 58 | 1008.0 |
| 20260505062824 | 35 | 186 | 3.2 | 3.2 | 0.00 | 0.00 | 0.15 | 59 | 1008.0 |
| 20260505062322 | 35 | 114 | 1.6 | 1.6 | 0.00 | 0.00 | 0.15 | 57 | 1008.0 |
| 20260505061822 | 35 | 76 | 1.6 | 1.6 | 0.00 | 0.00 | 0.15 | 57 | 1008.0 |
| 20260505061322 | 35 | 96 | 3.2 | 3.2 | 0.00 | 0.00 | 0.15 | 57 | 1008.0 |
| 20260505060824 | 35 | 96 | 1.6 | 1.6 | 0.00 | 0.00 | 0.15 | 57 | 1008.0 |
| 20260505060323 | 34 | 135 | 0.0 | 1.6 | 0.00 | 0.00 | 0.15 | 59 | 1008.0 |
| 20260505055823 | 34 | 149 | 3.2 | 3.2 | 0.00 | 0.00 | 0.15 | 57 | 1008.0 |
| 20260505055323 | 34 | 210 | 1.6 | 1.6 | 0.00 | 0.00 | 0.15 | 57 | 1009.0 |
| 20260505054824 | 33 | 124 | 0.0 | 0.0 | 0.00 | 0.00 | 0.15 | 60 | 1009.0 |
| 20260505054323 | 33 | 116 | 1.6 | 1.6 | 0.00 | 0.00 | 0.15 | 60 | 1009.0 |
| 20260505053822 | 33 | 71 | 3.2 | 3.2 | 0.00 | 0.00 | 0.15 | 62 | 1009.0 |
| 20260505053322 | 32 | 133 | 3.2 | 3.2 | 0.00 | 0.00 | 0.15 | 63 | 1009.0 |
| 20260505052822 | 32 | 160 | 1.6 | 3.2 | 0.00 | 0.00 | 0.15 | 64 | 1008.0 |
| 20260505052323 | 32 | 326 | 4.8 | 4.8 | 0.00 | 0.00 | 0.15 | 63 | 1009.0 |
| 20260505051822 | 32 | 49 | 1.6 | 3.2 | 0.00 | 0.00 | 0.15 | 67 | 1009.0 |
| 20260505051322 | 31 | 130 | 0.0 | 1.6 | 0.00 | 0.00 | 0.15 | 68 | 1009.0 |
| 20260505050824 | 31 | 134 | 1.6 | 3.2 | 0.00 | 0.00 | 0.15 | 68 | 1009.0 |
| 20260505050323 | 31 | 183 | 3.2 | 4.8 | 0.00 | 0.00 | 0.15 | 67 | 1009.0 |
| 20260505041322 | 30 | 109 | 1.6 | 1.6 | 0.00 | 0.00 | 0.15 | 72 | 1009.0 |
| 20260505040823 | 30 | 155 | 4.8 | 4.8 | 0.00 | 0.00 | 0.15 | 70 | 1010.0 |
| 20260505040322 | 30 | 144 | 6.4 | 8.0 | 0.00 | 0.00 | 0.15 | 71 | 1010.0 |
| 20260505035822 | 30 | 127 | 0.0 | 0.0 | 0.00 | 0.00 | 0.15 | 73 | 1009.0 |
| 20260505035324 | 28 | 155 | 4.8 | 4.8 | 0.00 | 0.00 | 0.15 | 74 | 1009.0 |
| 20260505034824 | 28 | 189 | 1.6 | 1.6 | 0.00 | 0.00 | 0.15 | 74 | 1010.0 |
| 20260505034323 | 28 | 126 | 1.6 | 3.2 | 0.00 | 0.00 | 0.15 | 75 | 1010.0 |
| 20260505033822 | 28 | 149 | 4.8 | 4.8 | 0.00 | 0.00 | 0.15 | 75 | 1009.0 |
| 20260505033323 | 28 | 123 | 1.6 | 1.6 | 0.00 | 0.00 | 0.15 | 77 | 1009.0 |
| 20260505032823 | 27 | 109 | 0.0 | 1.6 | 0.00 | 0.00 | 0.15 | 77 | 1009.0 |
| 20260505032322 | 27 | 131 | 1.6 | 3.2 | 0.00 | 0.00 | 0.15 | 78 | 1009.0 |
| 20260505031822 | 27 | 136 | 1.6 | 1.6 | 0.00 | 0.00 | 0.15 | 80 | 1009.0 |
| 20260505031322 | 27 | 133 | 0.0 | 1.6 | 0.00 | 0.00 | 0.15 | 81 | 1009.0 |
| 20260505030822 | 26 | 127 | 3.2 | 3.2 | 0.00 | 0.00 | 0.15 | 82 | 1009.0 |
| 20260505030325 | 26 | 187 | 1.6 | 3.2 | 0.00 | 0.00 | 0.15 | 82 | 1009.0 |
| 20260505025824 | 26 | 150 | 1.6 | 3.2 | 0.00 | 0.00 | 0.15 | 82 | 1009.0 |
| 20260505025324 | 26 | 136 | 1.6 | 1.6 | 0.00 | 0.00 | 0.15 | 83 | 1009.0 |
| 20260505024824 | 26 | 123 | 0.0 | 0.0 | 0.00 | 0.00 | 0.15 | 85 | 1009.0 |
| 20260505024324 | 25 | 131 | 0.0 | 0.0 | 0.00 | 0.00 | 0.15 | 85 | 1009.0 |
| 20260505023824 | 25 | 148 | 1.6 | 1.6 | 0.00 | 0.00 | 0.15 | 86 | 1009.0 |
| 20260505023323 | 25 | 188 | 1.6 | 3.2 | 0.00 | 0.00 | 0.15 | 86 | 1009.0 |
| 20260505022825 | 25 | 128 | 0.0 | 0.0 | 0.00 | 0.00 | 0.15 | 86 | 1009.0 |
| 20260505022324 | 25 | 154 | 1.6 | 4.8 | 0.00 | 0.00 | 0.15 | 86 | 1009.0 |
| 20260505021824 | 25 | 126 | 1.6 | 3.2 | 0.00 | 0.00 | 0.15 | 87 | 1009.0 |
| 20260505021324 | 25 | 139 | 1.6 | 1.6 | 0.00 | 0.00 | 0.15 | 87 | 1009.0 |
| 20260505020823 | 25 | 141 | 1.6 | 3.2 | 0.00 | 0.00 | 0.15 | 87 | 1009.0 |
| 20260505020322 | 25 | 123 | 3.2 | 3.2 | 0.00 | 0.00 | 0.15 | 87 | 1009.0 |
| 20260505015822 | 25 | 135 | 0.0 | 1.6 | 0.00 | 0.00 | 0.15 | 87 | 1009.0 |
| 20260505015322 | 25 | 141 | 3.2 | 3.2 | 0.00 | 0.00 | 0.15 | 87 | 1009.0 |
| 20260505014822 | 25 | 125 | 1.6 | 1.6 | 0.00 | 0.00 | 0.15 | 87 | 1009.0 |
| 20260505014324 | 25 | 132 | 1.6 | 1.6 | 0.00 | 0.00 | 0.15 | 87 | 1009.0 |
| 20260505013822 | 25 | 142 | 1.6 | 1.6 | 0.00 | 0.00 | 0.15 | 86 | 1009.0 |
| 20260505013323 | 25 | 131 | 1.6 | 1.6 | 0.00 | 0.00 | 0.15 | 86 | 1009.0 |
| 20260505012822 | 25 | 136 | 1.6 | 1.6 | 0.00 | 0.00 | 0.15 | 86 | 1008.0 |
| 20260505012322 | 25 | 135 | 1.6 | 3.2 | 0.00 | 0.00 | 0.15 | 85 | 1009.0 |
| 20260505011822 | 25 | 140 | 1.6 | 1.6 | 0.00 | 0.00 | 0.15 | 85 | 1008.0 |
| 20260505011322 | 25 | 139 | 1.6 | 1.6 | 0.00 | 0.00 | 0.15 | 85 | 1009.0 |
| 20260505010823 | 25 | 169 | 1.6 | 3.2 | 0.00 | 0.00 | 0.15 | 84 | 1008.0 |
| 20260505010323 | 25 | 136 | 0.0 | 0.0 | 0.00 | 0.00 | 0.15 | 84 | 1009.0 |
| 20260505005823 | 25 | 132 | 1.6 | 3.2 | 0.00 | 0.00 | 0.15 | 84 | 1008.0 |
| 20260505005325 | 25 | 118 | 0.0 | 0.0 | 0.00 | 0.00 | 0.15 | 84 | 1008.0 |
| 20260505004823 | 25 | 125 | 0.0 | 1.6 | 0.00 | 0.00 | 0.15 | 83 | 1008.0 |
| 20260505004322 | 25 | 123 | 0.0 | 0.0 | 0.00 | 0.00 | 0.15 | 83 | 1008.0 |
| 20260505003823 | 25 | 125 | 0.0 | 0.0 | 0.00 | 0.00 | 0.15 | 83 | 1008.0 |
| 20260505003322 | 25 | 136 | 0.0 | 1.6 | 0.00 | 0.00 | 0.15 | 83 | 1008.0 |
| 20260505002822 | 25 | 142 | 0.0 | 0.0 | 0.00 | 0.00 | 0.15 | 83 | 1008.0 |
| 20260505002322 | 25 | 166 | 3.2 | 4.8 | 0.00 | 0.00 | 0.15 | 82 | 1008.0 |
| 20260505001823 | 25 | 265 | 3.2 | 3.2 | 0.00 | 0.00 | 0.15 | 82 | 1008.0 |
| 20260505001322 | 25 | 165 | 3.2 | 3.2 | 0.00 | 0.00 | 0.15 | 83 | 1008.0 |
| 20260505000822 | 25 | 7 | 3.2 | 3.2 | 0.00 | 0.00 | 0.15 | 82 | 1007.0 |
| 20260505000322 | 25 | 65 | 3.2 | 3.2 | 0.00 | 0.00 | 0.15 | 83 | 1007.0 |
| 20260504235822 | 25 | 90 | 1.6 | 3.2 | 0.00 | 0.00 | 0.15 | 83 | 1007.0 |
| 20260504235322 | 25 | 92 | 1.6 | 3.2 | 0.00 | 0.00 | 0.15 | 84 | 1007.0 |
| 20260504234823 | 24 | 130 | 1.6 | 1.6 | 0.00 | 0.00 | 0.15 | 85 | 1007.0 |
| 20260504234322 | 24 | 224 | 1.6 | 1.6 | 0.00 | 0.00 | 0.15 | 86 | 1007.0 |
| 20260504233822 | 24 | 272 | 3.2 | 3.2 | 0.00 | 0.00 | 0.15 | 86 | 1007.0 |
| 20260504233323 | 24 | 98 | 3.2 | 3.2 | 0.00 | 0.00 | 0.15 | 87 | 1007.0 |
| 20260504232822 | 24 | 95 | 3.2 | 3.2 | 0.00 | 0.00 | 0.15 | 88 | 1007.0 |
| 20260504232323 | 23 | 349 | 3.2 | 3.2 | 0.00 | 0.00 | 0.15 | 89 | 1007.0 |
| 20260504231822 | 23 | 332 | 4.8 | 4.8 | 0.00 | 0.00 | 0.15 | 90 | 1007.0 |
| 20260504231324 | 23 | 84 | 3.2 | 3.2 | 0.00 | 0.00 | 0.15 | 90 | 1007.0 |
| 20260504230822 | 23 | 110 | 4.8 | 4.8 | 0.00 | 0.00 | 0.15 | 90 | 1007.0 |
| 20260504230323 | 23 | 95 | 3.2 | 3.2 | 0.00 | 0.00 | 0.15 | 90 | 1007.0 |
| 20260504225822 | 23 | 43 | 1.6 | 3.2 | 0.00 | 0.00 | 0.15 | 90 | 1007.0 |
| 20260504225323 | 23 | 80 | 1.6 | 1.6 | 0.00 | 0.00 | 0.15 | 89 | 1007.0 |
| 20260504224823 | 23 | 85 | 1.6 | 1.6 | 0.00 | 0.00 | 0.15 | 89 | 1007.0 |
| 20260504224327 | 23 | 116 | 1.6 | 1.6 | 0.00 | 0.00 | 0.15 | 89 | 1007.0 |
| 20260504223822 | 23 | 143 | 1.6 | 1.6 | 0.00 | 0.00 | 0.15 | 88 | 1007.0 |
| 20260504223322 | 23 | 121 | 0.0 | 1.6 | 0.00 | 0.00 | 0.15 | 88 | 1007.0 |
| 20260504222822 | 23 | 130 | 0.0 | 0.0 | 0.00 | 0.00 | 0.15 | 88 | 1007.0 |
| 20260504222322 | 24 | 140 | 1.6 | 1.6 | 0.00 | 0.00 | 0.15 | 88 | 1007.0 |
| 20260504221822 | 24 | 154 | 1.6 | 1.6 | 0.00 | 0.00 | 0.15 | 89 | 1007.0 |
| 20260504221322 | 24 | 161 | 1.6 | 1.6 | 0.00 | 0.00 | 0.15 | 90 | 1007.0 |
| 20260504220823 | 23 | 88 | 1.6 | 1.6 | 0.00 | 0.00 | 0.15 | 90 | 1007.0 |
| 20260504220322 | 23 | 128 | 0.0 | 0.0 | 0.00 | 0.00 | 0.15 | 90 | 1007.0 |
| 20260504215822 | 23 | 127 | 0.0 | 0.0 | 0.00 | 0.00 | 0.15 | 90 | 1007.0 |
| 20260504215324 | 23 | 121 | 0.0 | 0.0 | 0.00 | 0.00 | 0.15 | 90 | 1007.0 |
| 20260504214822 | 23 | 119 | 0.0 | 0.0 | 0.00 | 0.00 | 0.15 | 90 | 1007.0 |
| 20260504214323 | 23 | 147 | 1.6 | 3.2 | 0.00 | 0.00 | 0.15 | 90 | 1007.0 |
| 20260504213822 | 23 | 152 | 1.6 | 3.2 | 0.00 | 0.00 | 0.15 | 90 | 1007.0 |
| 20260504213322 | 23 | 129 | 0.0 | 0.0 | 0.00 | 0.00 | 0.15 | 91 | 1007.0 |
| 20260504212823 | 23 | 134 | 1.6 | 1.6 | 0.00 | 0.00 | 0.15 | 90 | 1007.0 |
| 20260504212322 | 23 | 119 | 0.0 | 0.0 | 0.00 | 0.00 | 0.15 | 90 | 1007.0 |
| 20260504211823 | 23 | 136 | 1.6 | 1.6 | 0.00 | 0.00 | 0.15 | 90 | 1007.0 |
| 20260504211322 | 23 | 124 | 0.0 | 0.0 | 0.18 | 0.00 | 0.15 | 89 | 1007.0 |
| 20260504210822 | 23 | 114 | 0.0 | 1.6 | 0.18 | 0.00 | 0.15 | 90 | 1007.0 |
| 20260504210322 | 23 | 129 | 0.0 | 1.6 | 0.00 | 0.00 | 0.13 | 90 | 1007.0 |
| 20260504205822 | 23 | 354 | 1.6 | 3.2 | 0.13 | 0.00 | 0.13 | 90 | 1008.0 |
| 20260504205322 | 23 | 287 | 3.2 | 3.2 | 0.30 | 0.00 | 0.13 | 90 | 1008.0 |
| 20260504204824 | 23 | 149 | 4.8 | 4.8 | 0.18 | 0.00 | 0.10 | 90 | 1008.0 |
| 20260504204322 | 23 | 116 | 0.0 | 1.6 | 0.18 | 0.00 | 0.10 | 90 | 1008.0 |
| 20260504203822 | 23 | 176 | 1.6 | 3.2 | 0.00 | 0.00 | 0.08 | 90 | 1008.0 |
| 20260504203322 | 23 | 279 | 3.2 | 3.2 | 0.13 | 0.00 | 0.08 | 89 | 1008.0 |
| 20260504202822 | 23 | 178 | 1.6 | 3.2 | 0.13 | 0.00 | 0.08 | 89 | 1008.0 |
| 20260504202324 | 23 | 135 | 1.6 | 1.6 | 0.00 | 0.00 | 0.05 | 89 | 1009.0 |
| 20260504201822 | 23 | 173 | 1.6 | 1.6 | 0.00 | 0.00 | 0.05 | 89 | 1008.0 |
| 20260504201322 | 23 | 186 | 1.6 | 3.2 | 0.00 | 0.00 | 0.05 | 89 | 1008.0 |
| 20260504200825 | 23 | 105 | 1.6 | 3.2 | 0.00 | 0.00 | 0.05 | 88 | 1008.0 |
| 20260504200322 | 23 | 130 | 1.6 | 1.6 | 0.00 | 0.00 | 0.05 | 88 | 1008.0 |
| 20260504195822 | 23 | 107 | 1.6 | 1.6 | 0.00 | 0.00 | 0.05 | 88 | 1008.0 |
| 20260504195323 | 23 | 72 | 1.6 | 3.2 | 0.00 | 0.00 | 0.05 | 88 | 1008.0 |
| 20260504194822 | 23 | 159 | 1.6 | 3.2 | 0.00 | 0.00 | 0.05 | 88 | 1008.0 |
| 20260504194324 | 23 | 122 | 1.6 | 1.6 | 0.18 | 0.00 | 0.05 | 88 | 1009.0 |
| 20260504193824 | 23 | 128 | 1.6 | 1.6 | 0.18 | 0.00 | 0.05 | 87 | 1009.0 |
| 20260504193323 | 23 | 139 | 1.6 | 3.2 | 0.00 | 0.00 | 0.03 | 87 | 1009.0 |
| 20260504192822 | 23 | 358 | 3.2 | 3.2 | 0.00 | 0.00 | 0.03 | 86 | 1009.0 |
| 20260504192323 | 23 | 33 | 1.6 | 3.2 | 0.00 | 0.00 | 0.03 | 86 | 1009.0 |
| 20260504191824 | 23 | 118 | 1.6 | 1.6 | 0.00 | 0.00 | 0.03 | 86 | 1009.0 |
| 20260504190835 | 24 | 136 | 3.2 | 3.2 | 0.13 | 0.00 | 0.03 | 85 | 1009.0 |
| 20260504190322 | 25 | 163 | 1.6 | 1.6 | 0.13 | 0.00 | 0.03 | 83 | 1009.0 |
| 20260504185824 | 25 | 119 | 1.6 | 3.2 | 0.00 | 0.00 | 0.00 | 82 | 1009.0 |
| 20260504185322 | 24 | 92 | 3.2 | 3.2 | 0.00 | 0.00 | 0.00 | 83 | 1009.0 |
| 20260504184822 | 24 | 109 | 1.6 | 1.6 | 0.00 | 0.00 | 0.00 | 82 | 1009.0 |
| 20260504184322 | 25 | 49 | 4.8 | 4.8 | 0.00 | 0.00 | 0.00 | 81 | 1009.0 |
| 20260504183822 | 25 | 261 | 8.0 | 9.7 | 0.00 | 0.00 | 0.00 | 80 | 1010.0 |
| 20260504183323 | 25 | 338 | 8.0 | 11.3 | 0.00 | 0.00 | 0.00 | 80 | 1010.0 |
| 20260504182822 | 25 | 307 | 4.8 | 8.0 | 0.00 | 0.00 | 0.00 | 81 | 1009.0 |
| 20260504182331 | 25 | 352 | 6.4 | 8.0 | 0.00 | 0.00 | 0.00 | 81 | 1009.0 |
| 20260504181823 | 25 | 54 | 3.2 | 4.8 | 0.00 | 0.00 | 0.00 | 82 | 1009.0 |
| 20260504181323 | 25 | 354 | 3.2 | 4.8 | 0.00 | 0.00 | 0.00 | 81 | 1009.0 |
| 20260504180825 | 25 | 56 | 4.8 | 4.8 | 0.00 | 0.00 | 0.00 | 81 | 1009.0 |
| 20260504180324 | 25 | 340 | 6.4 | 9.7 | 0.00 | 0.00 | 0.00 | 82 | 1009.0 |
| 20260504175822 | 24 | 3 | 9.7 | 12.9 | 0.00 | 0.00 | 0.00 | 83 | 1009.0 |
| 20260504175324 | 24 | 41 | 4.8 | 4.8 | 0.00 | 0.00 | 0.00 | 85 | 1009.0 |
| 20260504174823 | 24 | 16 | 4.8 | 4.8 | 0.00 | 0.00 | 0.00 | 85 | 1009.0 |
| 20260504174322 | 25 | 352 | 6.4 | 9.7 | 0.00 | 0.00 | 0.00 | 83 | 1009.0 |
| 20260504173822 | 25 | 283 | 4.8 | 4.8 | 0.00 | 0.00 | 0.00 | 82 | 1009.0 |
| 20260504173322 | 25 | 96 | 3.2 | 4.8 | 0.00 | 0.00 | 0.00 | 81 | 1009.0 |
| 20260504172823 | 25 | 245 | 8.0 | 11.3 | 0.00 | 0.00 | 0.00 | 78 | 1009.0 |
| 20260504172325 | 25 | 330 | 11.3 | 14.5 | 0.00 | 0.00 | 0.00 | 76 | 1009.0 |
| 20260504171823 | 25 | 3 | 6.4 | 8.0 | 0.00 | 0.00 | 0.00 | 78 | 1009.0 |
| 20260504171322 | 26 | 14 | 8.0 | 9.7 | 0.00 | 0.00 | 0.00 | 74 | 1009.0 |
| 20260504170824 | 26 | 171 | 4.8 | 8.0 | 0.00 | 0.00 | 0.00 | 74 | 1009.0 |
| 20260504170322 | 26 | 315 | 8.0 | 11.3 | 0.00 | 0.00 | 0.00 | 75 | 1009.0 |
| 20260504160322 | 30 | 136 | 1.6 | 1.6 | 0.00 | 0.00 | 0.00 | 78 | 1008.0 |